Station Historical Data
Daily Summary for July 8, 2017 Units:  English    Metric   Both
Next Day »
Daily Weekly Monthly Yearly Custom
  High: Low: Average:
Temperature: 92.3 °F 72.2 °F 80.7 °F
Dew Point: 62.5 °F 44.8 °F 50.4 °F
Humidity: 61% 20% 36%
Wind Speed: 9.0mph 0.0mph 1.3mph
Wind Gust: 14.0mph - -
Wind- - South
Pressure: 29.91 in 29.85 in -
Precipitation: 0.00 in    
Historical Graphs
 
 
Tabular Data for July 8, 2017
Time Temperature Dew Point Pressure Wind Wind Speed Wind Gust Humidity Rainfall Rate (Hourly) solar Conditions
00:01 77.1 °F 47.4 °F 29.91 in Calm   1.0 mph 35% 0.00 in 0.00 W/m2
00:06 77.0 °F 47.3 °F 29.91 in Calm   1.0 mph 35% 0.00 in 0.00 W/m2
00:11 76.9 °F 47.2 °F 29.91 in Calm   1.0 mph 35% 0.00 in 0.00 W/m2
00:16 76.8 °F 47.1 °F 29.91 in East 5.0 mph 5.0 mph 35% 0.00 in 0.00 W/m2
00:21 76.6 °F 47.7 °F 29.91 in East 2.0 mph 2.0 mph 36% 0.00 in 0.00 W/m2
00:26 76.4 °F 47.5 °F 29.91 in East 3.0 mph 3.0 mph 36% 0.00 in 0.00 W/m2
00:31 76.2 °F 48.0 °F 29.91 in Calm     37% 0.00 in 0.00 W/m2
00:36 76.0 °F 47.9 °F 29.91 in Calm     37% 0.00 in 0.00 W/m2
00:37 76.0 °F 47.9 °F 29.91 in East 1.0 mph 1.0 mph 37% 0.00 in 0.00 W/m2
00:42 75.8 °F 48.4 °F 29.90 in Calm   1.0 mph 38% 0.00 in 0.00 W/m2
00:47 75.5 °F 48.8 °F 29.90 in Calm   1.0 mph 39% 0.00 in 0.00 W/m2
00:52 75.3 °F 48.0 °F 29.90 in Calm   1.0 mph 38% 0.00 in 0.00 W/m2
00:57 75.2 °F 48.6 °F 29.90 in Calm   3.0 mph 39% 0.00 in 0.00 W/m2
01:02 75.1 °F 48.5 °F 29.90 in Calm   6.0 mph 39% 0.00 in 0.00 W/m2
01:07 74.9 °F 49.0 °F 29.90 in East 4.0 mph 4.0 mph 40% 0.00 in 0.00 W/m2
01:12 74.8 °F 48.2 °F 29.90 in East 4.0 mph 4.0 mph 39% 0.00 in 0.00 W/m2
01:17 74.7 °F 48.8 °F 29.89 in Calm   5.0 mph 40% 0.00 in 0.00 W/m2
01:22 74.7 °F 48.8 °F 29.89 in East 2.0 mph 3.0 mph 40% 0.00 in 0.00 W/m2
01:27 74.6 °F 48.7 °F 29.89 in East 4.0 mph 5.0 mph 40% 0.00 in 0.00 W/m2
01:32 74.5 °F 48.6 °F 29.89 in ENE 2.0 mph 4.0 mph 40% 0.00 in 0.00 W/m2
01:37 74.4 °F 48.5 °F 29.89 in ENE 3.0 mph 5.0 mph 40% 0.00 in 0.00 W/m2
01:42 74.3 °F 48.4 °F 29.88 in Calm   6.0 mph 40% 0.00 in 0.00 W/m2
01:47 74.2 °F 48.3 °F 29.88 in NE 2.0 mph 5.0 mph 40% 0.00 in 0.00 W/m2
01:52 74.1 °F 48.3 °F 29.88 in NE 4.0 mph 4.0 mph 40% 0.00 in 0.00 W/m2
01:57 74.1 °F 48.3 °F 29.88 in NE 1.0 mph 5.0 mph 40% 0.00 in 0.00 W/m2
02:02 74.1 °F 48.3 °F 29.88 in Calm   1.0 mph 40% 0.00 in 0.00 W/m2
02:07 74.1 °F 48.3 °F 29.88 in Calm   3.0 mph 40% 0.00 in 0.00 W/m2
02:12 74.1 °F 47.6 °F 29.88 in Calm   6.0 mph 39% 0.00 in 0.00 W/m2
02:17 74.1 °F 47.6 °F 29.88 in NE 3.0 mph 4.0 mph 39% 0.00 in 0.00 W/m2
02:22 74.1 °F 48.3 °F 29.88 in NE 2.0 mph 4.0 mph 40% 0.00 in 0.00 W/m2
02:27 74.0 °F 48.2 °F 29.88 in NE 3.0 mph 5.0 mph 40% 0.00 in 0.00 W/m2
02:32 74.0 °F 48.2 °F 29.88 in Calm   1.0 mph 40% 0.00 in 0.00 W/m2
02:37 73.9 °F 48.7 °F 29.88 in NE 4.0 mph 5.0 mph 41% 0.00 in 0.00 W/m2
02:42 73.9 °F 48.7 °F 29.88 in NE 1.0 mph 4.0 mph 41% 0.00 in 0.00 W/m2
02:47 73.8 °F 48.7 °F 29.88 in Calm   1.0 mph 41% 0.00 in 0.00 W/m2
02:53 73.7 °F 47.9 °F 29.88 in ENE 2.0 mph 6.0 mph 40% 0.00 in 0.00 W/m2
02:58 73.7 °F 48.6 °F 29.87 in ENE 2.0 mph 5.0 mph 41% 0.00 in 0.00 W/m2
03:03 73.6 °F 48.5 °F 29.87 in ENE 3.0 mph 5.0 mph 41% 0.00 in 0.00 W/m2
03:08 73.6 °F 49.1 °F 29.87 in Calm   4.0 mph 42% 0.00 in 0.00 W/m2
03:13 73.5 °F 48.4 °F 29.87 in ENE 3.0 mph 4.0 mph 41% 0.00 in 0.00 W/m2
03:18 73.4 °F 48.3 °F 29.87 in ENE 1.0 mph 6.0 mph 41% 0.00 in 0.00 W/m2
03:23 73.3 °F 48.2 °F 29.87 in Calm   4.0 mph 41% 0.00 in 0.00 W/m2
03:28 73.2 °F 48.1 °F 29.86 in ENE 2.0 mph 4.0 mph 41% 0.00 in 0.00 W/m2
03:33 73.1 °F 48.0 °F 29.86 in Calm   1.0 mph 41% 0.00 in 0.00 W/m2
03:38 73.0 °F 48.6 °F 29.86 in Calm   1.0 mph 42% 0.00 in 0.00 W/m2
03:43 72.9 °F 47.8 °F 29.87 in Calm     41% 0.00 in 0.00 W/m2
03:48 72.9 °F 47.8 °F 29.86 in Calm   1.0 mph 41% 0.00 in 0.00 W/m2
03:53 72.8 °F 47.8 °F 29.86 in Calm   1.0 mph 41% 0.00 in 0.00 W/m2
03:58 72.7 °F 47.7 °F 29.86 in Calm   1.0 mph 41% 0.00 in 0.00 W/m2
04:03 72.6 °F 48.2 °F 29.86 in Calm     42% 0.00 in 0.00 W/m2
04:08 72.5 °F 48.1 °F 29.86 in Calm   1.0 mph 42% 0.00 in 0.00 W/m2
04:13 72.3 °F 47.3 °F 29.86 in Calm     41% 0.00 in 0.00 W/m2
04:18 72.3 °F 48.0 °F 29.86 in Calm     42% 0.00 in 0.00 W/m2
04:19 72.3 °F 48.0 °F 29.86 in Calm     42% 0.00 in 0.00 W/m2
04:24 72.2 °F 46.6 °F 29.86 in ENE 4.0 mph 5.0 mph 40% 0.00 in 0.00 W/m2
04:29 72.2 °F 46.6 °F 29.86 in East 4.0 mph 7.0 mph 40% 0.00 in 0.00 W/m2
04:34 72.2 °F 46.6 °F 29.86 in East 1.0 mph 6.0 mph 40% 0.00 in 0.00 W/m2
04:39 72.2 °F 47.2 °F 29.86 in East 3.0 mph 5.0 mph 41% 0.00 in 0.00 W/m2
04:44 72.2 °F 47.2 °F 29.86 in Calm   5.0 mph 41% 0.00 in 0.00 W/m2
04:49 72.2 °F 47.2 °F 29.86 in Calm   4.0 mph 41% 0.00 in 0.00 W/m2
04:54 72.2 °F 47.2 °F 29.86 in Calm   4.0 mph 41% 0.00 in 0.00 W/m2
04:59 72.3 °F 48.0 °F 29.86 in Calm   4.0 mph 42% 0.00 in 0.00 W/m2
05:01 72.3 °F 48.0 °F 29.86 in Calm   3.0 mph 42% 0.00 in 0.00 W/m2
05:06 72.3 °F 47.3 °F 29.86 in East 3.0 mph 5.0 mph 41% 0.00 in 0.00 W/m2
05:11 72.3 °F 46.7 °F 29.86 in Calm     40% 0.00 in 0.00 W/m2
05:16 72.4 °F 46.7 °F 29.86 in East 5.0 mph 5.0 mph 40% 0.00 in 0.00 W/m2
05:21 72.4 °F 46.7 °F 29.86 in Calm   6.0 mph 40% 0.00 in 0.00 W/m2
05:23 72.4 °F 47.4 °F 29.86 in East 3.0 mph 6.0 mph 41% 0.00 in 0.00 W/m2
05:28 72.4 °F 47.4 °F 29.86 in East 4.0 mph 6.0 mph 41% 0.00 in 0.00 W/m2
05:33 72.4 °F 47.4 °F 29.86 in East 4.0 mph 6.0 mph 41% 0.00 in 0.00 W/m2
05:38 72.5 °F 47.5 °F 29.86 in Calm   6.0 mph 41% 0.00 in 0.00 W/m2
05:43 72.4 °F 47.4 °F 29.86 in Calm   7.0 mph 41% 0.00 in 0.00 W/m2
05:48 72.4 °F 47.4 °F 29.86 in East 9.0 mph 9.0 mph 41% 0.00 in 7.00 W/m2
05:53 72.4 °F 48.0 °F 29.86 in East 1.0 mph 7.0 mph 42% 0.00 in 9.00 W/m2
05:58 72.4 °F 48.0 °F 29.86 in East 7.0 mph 7.0 mph 42% 0.00 in 12.00 W/m2
06:03 72.4 °F 48.0 °F 29.86 in Calm   5.0 mph 42% 0.00 in 14.00 W/m2
06:08 72.4 °F 48.0 °F 29.87 in East 5.0 mph 7.0 mph 42% 0.00 in 18.00 W/m2
06:13 72.4 °F 48.0 °F 29.87 in East 4.0 mph 6.0 mph 42% 0.00 in 19.00 W/m2
06:18 72.4 °F 48.7 °F 29.87 in East 5.0 mph 8.0 mph 43% 0.00 in 25.00 W/m2
06:23 72.4 °F 48.7 °F 29.87 in Calm   7.0 mph 43% 0.00 in 33.00 W/m2
06:28 72.4 °F 48.7 °F 29.87 in East 4.0 mph 5.0 mph 43% 0.00 in 42.00 W/m2
06:33 72.4 °F 49.3 °F 29.87 in Calm   6.0 mph 44% 0.00 in 53.00 W/m2
06:39 72.4 °F 49.9 °F 29.87 in East 5.0 mph 7.0 mph 45% 0.00 in 63.00 W/m2
06:44 72.4 °F 49.9 °F 29.87 in East 5.0 mph 6.0 mph 45% 0.00 in 77.00 W/m2
06:49 72.4 °F 49.9 °F 29.87 in East 4.0 mph 6.0 mph 45% 0.00 in 90.00 W/m2
06:54 72.4 °F 50.5 °F 29.87 in Calm   7.0 mph 46% 0.00 in 109.00 W/m2
06:56 72.4 °F 50.5 °F 29.87 in East 5.0 mph 6.0 mph 46% 0.00 in 118.00 W/m2
07:01 72.5 °F 51.2 °F 29.87 in Calm   6.0 mph 47% 0.00 in 135.00 W/m2
07:06 72.5 °F 51.2 °F 29.87 in Calm   5.0 mph 47% 0.00 in 155.00 W/m2
07:11 72.5 °F 51.7 °F 29.87 in East 4.0 mph 4.0 mph 48% 0.00 in 169.00 W/m2
07:16 72.5 °F 52.3 °F 29.87 in Calm   7.0 mph 49% 0.00 in 186.00 W/m2
07:21 72.6 °F 52.4 °F 29.87 in East 5.0 mph 5.0 mph 49% 0.00 in 204.00 W/m2
07:26 72.6 °F 52.9 °F 29.87 in ESE 4.0 mph 4.0 mph 50% 0.00 in 225.00 W/m2
07:31 72.6 °F 52.9 °F 29.87 in ESE 2.0 mph 6.0 mph 50% 0.00 in 244.00 W/m2
07:36 72.6 °F 53.5 °F 29.87 in ESE 4.0 mph 4.0 mph 51% 0.00 in 262.00 W/m2
07:41 72.7 °F 54.1 °F 29.88 in Calm   1.0 mph 52% 0.00 in 278.00 W/m2
07:46 72.8 °F 54.2 °F 29.88 in ESE 2.0 mph 2.0 mph 52% 0.00 in 290.00 W/m2
07:51 72.8 °F 54.2 °F 29.88 in Calm   1.0 mph 52% 0.00 in 308.00 W/m2
07:56 72.9 °F 54.3 °F 29.88 in Calm   1.0 mph 52% 0.00 in 323.00 W/m2
08:01 73.0 °F 54.9 °F 29.88 in Calm   1.0 mph 53% 0.00 in 339.00 W/m2
08:06 73.1 °F 55.5 °F 29.88 in Calm   2.0 mph 54% 0.00 in 357.00 W/m2
08:11 73.3 °F 55.7 °F 29.88 in ESE 1.0 mph 2.0 mph 54% 0.00 in 373.00 W/m2
08:16 73.4 °F 55.8 °F 29.88 in Calm   1.0 mph 54% 0.00 in 390.00 W/m2
08:21 73.6 °F 56.5 °F 29.88 in Calm   2.0 mph 55% 0.00 in 408.00 W/m2
08:26 73.8 °F 56.6 °F 29.88 in Calm     55% 0.00 in 422.00 W/m2
08:31 74.0 °F 57.3 °F 29.88 in Calm     56% 0.00 in 438.00 W/m2
08:36 74.2 °F 57.5 °F 29.88 in Calm     56% 0.00 in 454.00 W/m2
08:41 74.4 °F 58.2 °F 29.88 in Calm     57% 0.00 in 469.00 W/m2
08:46 74.8 °F 59.5 °F 29.88 in Calm     59% 0.00 in 485.00 W/m2
08:51 75.2 °F 59.9 °F 29.88 in Calm     59% 0.00 in 499.00 W/m2
08:56 75.6 °F 60.8 °F 29.88 in Calm     60% 0.00 in 517.00 W/m2
09:01 76.1 °F 61.7 °F 29.88 in Calm     61% 0.00 in 526.00 W/m2
09:06 76.5 °F 61.6 °F 29.88 in Calm     60% 0.00 in 540.00 W/m2
09:11 77.0 °F 62.1 °F 29.88 in Calm     60% 0.00 in 555.00 W/m2
09:16 77.5 °F 62.5 °F 29.88 in Calm     60% 0.00 in 571.00 W/m2
09:21 77.7 °F 62.2 °F 29.88 in Calm   1.0 mph 59% 0.00 in 587.00 W/m2
09:26 78.0 °F 61.5 °F 29.88 in Calm     57% 0.00 in 603.00 W/m2
09:31 78.4 °F 62.4 °F 29.88 in Calm     58% 0.00 in 619.00 W/m2
09:36 78.7 °F 61.7 °F 29.88 in Calm     56% 0.00 in 631.00 W/m2
09:41 78.9 °F 59.8 °F 29.88 in Calm     52% 0.00 in 638.00 W/m2
09:46 79.2 °F 60.1 °F 29.88 in Calm     52% 0.00 in 659.00 W/m2
09:51 79.6 °F 59.9 °F 29.88 in Calm     51% 0.00 in 668.00 W/m2
09:56 79.9 °F 59.0 °F 29.88 in ESE 1.0 mph 2.0 mph 49% 0.00 in 677.00 W/m2
10:01 80.3 °F 58.8 °F 29.88 in Calm   1.0 mph 48% 0.00 in 687.00 W/m2
10:06 80.7 °F 54.8 °F 29.88 in Calm     41% 0.00 in 700.00 W/m2
10:12 81.2 °F 55.3 °F 29.89 in Calm     41% 0.00 in 703.00 W/m2
10:17 81.9 °F 53.8 °F 29.88 in Calm     38% 0.00 in 719.00 W/m2
10:21 82.4 °F 54.3 °F 29.89 in Calm     38% 0.00 in 728.00 W/m2
10:27 82.9 °F 54.7 °F 29.89 in Calm   2.0 mph 38% 0.00 in 747.00 W/m2
10:32 83.3 °F 53.6 °F 29.89 in ESE 1.0 mph 1.0 mph 36% 0.00 in 763.00 W/m2
10:37 83.8 °F 52.5 °F 29.89 in Calm   2.0 mph 34% 0.00 in 773.00 W/m2
10:42 84.2 °F 52.0 °F 29.89 in Calm   1.0 mph 33% 0.00 in 784.00 W/m2
10:43 84.2 °F 52.0 °F 29.89 in Calm   1.0 mph 33% 0.00 in 779.00 W/m2
10:48 84.6 °F 52.4 °F 29.89 in Calm   1.0 mph 33% 0.00 in 796.00 W/m2
10:53 84.9 °F 52.6 °F 29.89 in Calm   5.0 mph 33% 0.00 in 800.00 W/m2
10:58 85.3 °F 53.8 °F 29.89 in NNW 1.0 mph 3.0 mph 34% 0.00 in 814.00 W/m2
11:03 85.5 °F 51.4 °F 29.89 in Calm   1.0 mph 31% 0.00 in 817.00 W/m2
11:08 85.7 °F 53.3 °F 29.90 in NW 2.0 mph 4.0 mph 33% 0.00 in 833.00 W/m2
11:13 85.9 °F 50.9 °F 29.89 in WNW 3.0 mph 4.0 mph 30% 0.00 in 842.00 W/m2
11:18 86.1 °F 51.1 °F 29.90 in Calm   4.0 mph 30% 0.00 in 844.00 W/m2
11:20 86.2 °F 53.8 °F 29.90 in West 1.0 mph 4.0 mph 33% 0.00 in 844.00 W/m2
11:25 86.4 °F 53.1 °F 29.90 in Calm   4.0 mph 32% 0.00 in 853.00 W/m2
11:30 86.4 °F 53.9 °F 29.90 in Calm   3.0 mph 33% 0.00 in 856.00 W/m2
11:34 86.5 °F 54.0 °F 29.90 in Calm   3.0 mph 33% 0.00 in 870.00 W/m2
11:39 86.6 °F 54.1 °F 29.90 in Calm   5.0 mph 33% 0.00 in 870.00 W/m2
11:44 86.7 °F 53.3 °F 29.90 in Calm   7.0 mph 32% 0.00 in 877.00 W/m2
11:49 86.8 °F 52.6 °F 29.90 in West 3.0 mph 6.0 mph 31% 0.00 in 886.00 W/m2
11:54 86.9 °F 51.8 °F 29.90 in West 2.0 mph 4.0 mph 30% 0.00 in 886.00 W/m2
11:59 87.1 °F 50.1 °F 29.90 in Calm   3.0 mph 28% 0.00 in 889.00 W/m2
12:04 87.3 °F 51.2 °F 29.90 in West 6.0 mph 8.0 mph 29% 0.00 in 895.00 W/m2
12:09 87.7 °F 51.5 °F 29.90 in WNW 3.0 mph 6.0 mph 29% 0.00 in 900.00 W/m2
12:15 88.1 °F 50.0 °F 29.90 in West 1.0 mph 7.0 mph 27% 0.00 in 900.00 W/m2
12:20 88.5 °F 53.1 °F 29.90 in West 4.0 mph 5.0 mph 30% 0.00 in 909.00 W/m2
12:25 88.8 °F 54.3 °F 29.90 in WNW 2.0 mph 8.0 mph 31% 0.00 in 912.00 W/m2
12:30 89.1 °F 50.8 °F 29.90 in WNW 2.0 mph 8.0 mph 27% 0.00 in 916.00 W/m2
12:35 89.4 °F 51.0 °F 29.90 in Calm   5.0 mph 27% 0.00 in 918.00 W/m2
12:40 89.5 °F 51.1 °F 29.90 in WNW 1.0 mph 8.0 mph 27% 0.00 in 919.00 W/m2
12:45 89.5 °F 49.1 °F 29.90 in Calm   8.0 mph 25% 0.00 in 919.00 W/m2
12:50 89.5 °F 50.1 °F 29.89 in West 3.0 mph 8.0 mph 26% 0.00 in 925.00 W/m2
12:55 89.8 °F 52.4 °F 29.89 in Calm   3.0 mph 28% 0.00 in 926.00 W/m2
13:00 90.0 °F 51.6 °F 29.89 in West 7.0 mph 7.0 mph 27% 0.00 in 925.00 W/m2
13:05 90.4 °F 51.9 °F 29.89 in Calm   7.0 mph 27% 0.00 in 926.00 W/m2
13:10 90.6 °F 51.0 °F 29.89 in WNW 5.0 mph 7.0 mph 26% 0.00 in 925.00 W/m2
13:15 90.9 °F 52.3 °F 29.89 in WNW 2.0 mph 5.0 mph 27% 0.00 in 925.00 W/m2
13:20 91.2 °F 50.5 °F 29.89 in West 2.0 mph 6.0 mph 25% 0.00 in 925.00 W/m2
13:25 91.4 °F 52.8 °F 29.90 in West 1.0 mph 7.0 mph 27% 0.00 in 925.00 W/m2
13:30 91.4 °F 49.6 °F 29.90 in Calm   8.0 mph 24% 0.00 in 923.00 W/m2
13:35 91.4 °F 50.7 °F 29.89 in Calm   3.0 mph 25% 0.00 in 923.00 W/m2
13:40 91.7 °F 52.0 °F 29.89 in West 3.0 mph 7.0 mph 26% 0.00 in 919.00 W/m2
13:45 91.6 °F 49.7 °F 29.89 in West 1.0 mph 4.0 mph 24% 0.00 in 918.00 W/m2
13:50 91.6 °F 48.6 °F 29.90 in WNW 5.0 mph 8.0 mph 23% 0.00 in 912.00 W/m2
13:55 91.7 °F 50.9 °F 29.89 in Calm   6.0 mph 25% 0.00 in 907.00 W/m2
14:00 91.7 °F 48.7 °F 29.89 in West 1.0 mph 5.0 mph 23% 0.00 in 905.00 W/m2
14:05 91.8 °F 47.6 °F 29.89 in West 1.0 mph 4.0 mph 22% 0.00 in 904.00 W/m2
14:10 91.8 °F 48.8 °F 29.89 in Calm   9.0 mph 23% 0.00 in 895.00 W/m2
14:15 91.8 °F 48.8 °F 29.89 in Calm   6.0 mph 23% 0.00 in 889.00 W/m2
14:20 91.8 °F 47.6 °F 29.89 in Calm   7.0 mph 22% 0.00 in 886.00 W/m2
14:25 91.9 °F 48.8 °F 29.89 in WSW 6.0 mph 6.0 mph 23% 0.00 in 881.00 W/m2
14:30 91.8 °F 47.6 °F 29.89 in West 4.0 mph 6.0 mph 22% 0.00 in 874.00 W/m2
14:32 91.8 °F 47.6 °F 29.89 in Calm   3.0 mph 22% 0.00 in 872.00 W/m2
14:37 91.9 °F 47.7 °F 29.88 in Calm   2.0 mph 22% 0.00 in 865.00 W/m2
14:42 91.9 °F 48.8 °F 29.88 in West 3.0 mph 3.0 mph 23% 0.00 in 858.00 W/m2
14:47 92.0 °F 48.9 °F 29.88 in WSW 2.0 mph 4.0 mph 23% 0.00 in 851.00 W/m2
14:52 92.1 °F 46.6 °F 29.88 in WSW 1.0 mph 3.0 mph 21% 0.00 in 842.00 W/m2
14:57 92.3 °F 50.3 °F 29.88 in Calm   7.0 mph 24% 0.00 in 837.00 W/m2
15:02 92.2 °F 49.1 °F 29.88 in Calm   2.0 mph 23% 0.00 in 831.00 W/m2
15:07 92.0 °F 50.1 °F 29.88 in Calm   8.0 mph 24% 0.00 in 821.00 W/m2
15:12 91.9 °F 48.8 °F 29.88 in West 1.0 mph 6.0 mph 23% 0.00 in 814.00 W/m2
15:17 91.8 °F 48.8 °F 29.87 in West 1.0 mph 4.0 mph 23% 0.00 in 805.00 W/m2
15:22 91.7 °F 49.8 °F 29.87 in Calm   6.0 mph 24% 0.00 in 795.00 W/m2
15:27 91.6 °F 49.7 °F 29.87 in Calm   10.0 mph 24% 0.00 in 786.00 W/m2
15:33 91.5 °F 48.5 °F 29.87 in NNW 2.0 mph 6.0 mph 23% 0.00 in 775.00 W/m2
15:38 91.5 °F 50.8 °F 29.87 in West 5.0 mph 8.0 mph 25% 0.00 in 766.00 W/m2
15:43 91.5 °F 49.7 °F 29.87 in WNW 1.0 mph 6.0 mph 24% 0.00 in 754.00 W/m2
15:48 91.5 °F 48.5 °F 29.87 in Calm   3.0 mph 23% 0.00 in 745.00 W/m2
15:53 91.5 °F 44.8 °F 29.87 in Calm   7.0 mph 20% 0.00 in 733.00 W/m2
15:58 91.5 °F 48.5 °F 29.87 in West 4.0 mph 4.0 mph 23% 0.00 in 722.00 W/m2
16:03 91.5 °F 48.5 °F 29.87 in Calm   3.0 mph 23% 0.00 in 708.00 W/m2
16:08 91.4 °F 47.2 °F 29.87 in West 5.0 mph 5.0 mph 22% 0.00 in 698.00 W/m2
16:13 91.3 °F 48.3 °F 29.87 in Calm     23% 0.00 in 686.00 W/m2
16:18 91.3 °F 49.5 °F 29.87 in Calm   1.0 mph 24% 0.00 in 673.00 W/m2
16:23 91.2 °F 47.1 °F 29.87 in Calm   7.0 mph 22% 0.00 in 659.00 W/m2
16:28 91.3 °F 47.2 °F 29.87 in Calm   2.0 mph 22% 0.00 in 649.00 W/m2
16:33 91.3 °F 48.3 °F 29.87 in Calm   2.0 mph 23% 0.00 in 636.00 W/m2
16:38 91.2 °F 48.3 °F 29.87 in WNW 2.0 mph 2.0 mph 23% 0.00 in 621.00 W/m2
16:43 91.1 °F 48.2 °F 29.87 in Calm   3.0 mph 23% 0.00 in 606.00 W/m2
16:48 91.1 °F 48.2 °F 29.87 in Calm   1.0 mph 23% 0.00 in 594.00 W/m2
16:53 91.0 °F 49.2 °F 29.87 in West 2.0 mph 7.0 mph 24% 0.00 in 582.00 W/m2
16:58 90.9 °F 49.2 °F 29.87 in WNW 1.0 mph 4.0 mph 24% 0.00 in 566.00 W/m2
17:03 90.8 °F 47.9 °F 29.86 in Calm     23% 0.00 in 554.00 W/m2
17:08 90.6 °F 48.9 °F 29.86 in Calm   1.0 mph 24% 0.00 in 540.00 W/m2
17:13 90.5 °F 49.9 °F 29.86 in WNW 1.0 mph 2.0 mph 25% 0.00 in 526.00 W/m2
17:18 90.5 °F 49.9 °F 29.86 in Calm   2.0 mph 25% 0.00 in 510.00 W/m2
17:23 90.4 °F 49.8 °F 29.86 in Calm   3.0 mph 25% 0.00 in 499.00 W/m2
17:28 90.3 °F 49.7 °F 29.86 in Calm   3.0 mph 25% 0.00 in 480.00 W/m2
17:33 90.3 °F 49.7 °F 29.86 in West 4.0 mph 4.0 mph 25% 0.00 in 464.00 W/m2
17:38 90.1 °F 47.3 °F 29.86 in Calm   2.0 mph 23% 0.00 in 448.00 W/m2
17:43 90.0 °F 47.3 °F 29.86 in Calm     23% 0.00 in 432.00 W/m2
17:44 90.0 °F 47.3 °F 29.86 in Calm     23% 0.00 in 431.00 W/m2
17:49 89.9 °F 48.3 °F 29.86 in West 2.0 mph 3.0 mph 24% 0.00 in 417.00 W/m2
17:54 89.8 °F 48.2 °F 29.86 in West 1.0 mph 3.0 mph 24% 0.00 in 399.00 W/m2
17:59 89.7 °F 50.3 °F 29.86 in Calm   4.0 mph 26% 0.00 in 385.00 W/m2
18:04 89.6 °F 50.2 °F 29.85 in Calm   2.0 mph 26% 0.00 in 367.00 W/m2
18:09 89.5 °F 49.1 °F 29.85 in West 3.0 mph 4.0 mph 25% 0.00 in 353.00 W/m2
18:14 89.2 °F 51.9 °F 29.85 in Calm   2.0 mph 28% 0.00 in 336.00 W/m2
18:19 88.9 °F 52.6 °F 29.85 in Calm   1.0 mph 29% 0.00 in 320.00 W/m2
18:23 88.6 °F 49.4 °F 29.85 in West 2.0 mph 3.0 mph 26% 0.00 in 315.00 W/m2
18:28 88.4 °F 52.1 °F 29.85 in West 2.0 mph 3.0 mph 29% 0.00 in 297.00 W/m2
18:33 88.1 °F 50.9 °F 29.85 in Calm   6.0 mph 28% 0.00 in 274.00 W/m2
18:38 87.8 °F 51.6 °F 29.85 in Calm   3.0 mph 29% 0.00 in 258.00 W/m2
18:43 87.4 °F 53.1 °F 29.85 in Calm   3.0 mph 31% 0.00 in 246.00 W/m2
18:48 86.9 °F 54.4 °F 29.85 in Calm     33% 0.00 in 227.00 W/m2
18:53 86.5 °F 53.2 °F 29.85 in Calm   2.0 mph 32% 0.00 in 202.00 W/m2
18:58 86.0 °F 54.4 °F 29.85 in Calm   4.0 mph 34% 0.00 in 190.00 W/m2
19:03 85.5 °F 54.0 °F 29.86 in Calm   3.0 mph 34% 0.00 in 172.00 W/m2
19:08 85.0 °F 54.3 °F 29.85 in WSW 1.0 mph 2.0 mph 35% 0.00 in 156.00 W/m2
19:13 84.5 °F 54.6 °F 29.86 in WSW 1.0 mph 2.0 mph 36% 0.00 in 142.00 W/m2
19:18 84.1 °F 53.5 °F 29.86 in Calm   5.0 mph 35% 0.00 in 132.00 W/m2
19:23 83.6 °F 53.1 °F 29.86 in WSW 1.0 mph 2.0 mph 35% 0.00 in 121.00 W/m2
19:28 83.2 °F 53.5 °F 29.86 in Calm   1.0 mph 36% 0.00 in 104.00 W/m2
19:33 82.8 °F 53.2 °F 29.86 in Calm   1.0 mph 36% 0.00 in 90.00 W/m2
19:38 82.4 °F 52.0 °F 29.86 in Calm     35% 0.00 in 74.00 W/m2
19:43 82.1 °F 51.8 °F 29.86 in Calm   1.0 mph 35% 0.00 in 60.00 W/m2
19:48 81.7 °F 51.4 °F 29.86 in Calm   2.0 mph 35% 0.00 in 49.00 W/m2
19:54 81.4 °F 51.2 °F 29.86 in Calm   1.0 mph 35% 0.00 in 37.00 W/m2
19:59 81.1 °F 50.1 °F 29.86 in WSW 2.0 mph 2.0 mph 34% 0.00 in 28.00 W/m2
20:04 80.8 °F 49.8 °F 29.86 in Calm   2.0 mph 34% 0.00 in 21.00 W/m2
20:09 80.6 °F 50.5 °F 29.86 in WSW 1.0 mph 1.0 mph 35% 0.00 in 16.00 W/m2
20:14 80.3 °F 50.2 °F 29.86 in Calm   2.0 mph 35% 0.00 in 14.00 W/m2
20:19 80.1 °F 49.2 °F 29.86 in Calm   1.0 mph 34% 0.00 in 11.00 W/m2
20:24 79.9 °F 49.8 °F 29.86 in Calm   1.0 mph 35% 0.00 in 9.00 W/m2
20:29 79.7 °F 49.7 °F 29.87 in Calm   1.0 mph 35% 0.00 in 7.00 W/m2
20:34 79.6 °F 49.6 °F 29.86 in Calm   1.0 mph 35% 0.00 in 5.00 W/m2
20:39 79.4 °F 49.4 °F 29.86 in WSW 1.0 mph 3.0 mph 35% 0.00 in 0.00 W/m2
20:44 79.2 °F 48.4 °F 29.86 in Calm   2.0 mph 34% 0.00 in 0.00 W/m2
20:49 79.1 °F 49.1 °F 29.86 in Calm   1.0 mph 35% 0.00 in 0.00 W/m2
20:54 79.0 °F 49.0 °F 29.87 in WSW 1.0 mph 2.0 mph 35% 0.00 in 0.00 W/m2
20:59 78.9 °F 48.2 °F 29.87 in Calm   2.0 mph 34% 0.00 in 0.00 W/m2
21:04 78.8 °F 48.1 °F 29.87 in WSW 1.0 mph 1.0 mph 34% 0.00 in 0.00 W/m2
21:09 78.8 °F 48.1 °F 29.87 in WSW 1.0 mph 2.0 mph 34% 0.00 in 0.00 W/m2
21:14 78.7 °F 48.8 °F 29.87 in Calm   3.0 mph 35% 0.00 in 0.00 W/m2
21:19 78.6 °F 47.9 °F 29.88 in Calm   4.0 mph 34% 0.00 in 0.00 W/m2
21:24 78.5 °F 48.6 °F 29.88 in Calm   4.0 mph 35% 0.00 in 0.00 W/m2
21:29 78.4 °F 47.7 °F 29.88 in Calm   2.0 mph 34% 0.00 in 0.00 W/m2
21:34 78.3 °F 47.7 °F 29.88 in Calm   8.0 mph 34% 0.00 in 0.00 W/m2
21:39 78.1 °F 47.5 °F 29.88 in SE 2.0 mph 7.0 mph 34% 0.00 in 0.00 W/m2
21:44 78.0 °F 48.2 °F 29.88 in Calm   5.0 mph 35% 0.00 in 0.00 W/m2
21:49 78.0 °F 48.9 °F 29.88 in Calm   5.0 mph 36% 0.00 in 0.00 W/m2
21:54 77.9 °F 48.8 °F 29.88 in Calm   6.0 mph 36% 0.00 in 0.00 W/m2
21:59 77.8 °F 48.7 °F 29.89 in ESE 5.0 mph 8.0 mph 36% 0.00 in 0.00 W/m2
22:04 77.8 °F 48.7 °F 29.88 in Calm   8.0 mph 36% 0.00 in 0.00 W/m2
22:09 77.8 °F 48.7 °F 29.89 in ESE 7.0 mph 8.0 mph 36% 0.00 in 0.00 W/m2
22:14 77.7 °F 48.7 °F 29.88 in ESE 4.0 mph 8.0 mph 36% 0.00 in 0.00 W/m2
22:19 77.7 °F 48.7 °F 29.88 in Calm   8.0 mph 36% 0.00 in 0.00 W/m2
22:24 77.6 °F 48.6 °F 29.89 in ESE 4.0 mph 9.0 mph 36% 0.00 in 0.00 W/m2
22:29 77.6 °F 48.6 °F 29.89 in East 5.0 mph 12.0 mph 36% 0.00 in 0.00 W/m2
22:34 77.6 °F 48.6 °F 29.88 in Calm   13.0 mph 36% 0.00 in 0.00 W/m2
22:39 77.6 °F 48.6 °F 29.88 in Calm   12.0 mph 36% 0.00 in 0.00 W/m2
22:44 77.5 °F 48.5 °F 29.88 in ESE 6.0 mph 12.0 mph 36% 0.00 in 0.00 W/m2
22:49 77.5 °F 48.5 °F 29.88 in East 2.0 mph 11.0 mph 36% 0.00 in 0.00 W/m2
22:54 77.4 °F 48.4 °F 29.88 in ESE 5.0 mph 8.0 mph 36% 0.00 in 0.00 W/m2
22:59 77.4 °F 48.4 °F 29.88 in Calm   11.0 mph 36% 0.00 in 0.00 W/m2
23:04 77.3 °F 48.3 °F 29.88 in ESE 5.0 mph 13.0 mph 36% 0.00 in 0.00 W/m2
23:09 77.3 °F 48.3 °F 29.88 in ESE 1.0 mph 12.0 mph 36% 0.00 in 0.00 W/m2
23:14 77.3 °F 48.3 °F 29.88 in ESE 6.0 mph 12.0 mph 36% 0.00 in 0.00 W/m2
23:19 77.2 °F 48.2 °F 29.88 in ESE 4.0 mph 11.0 mph 36% 0.00 in 0.00 W/m2
23:24 77.2 °F 48.2 °F 29.88 in ESE 7.0 mph 14.0 mph 36% 0.00 in 0.00 W/m2
23:29 77.1 °F 48.1 °F 29.88 in ESE 6.0 mph 12.0 mph 36% 0.00 in 0.00 W/m2
23:35 77.0 °F 48.0 °F 29.88 in ESE 6.0 mph 12.0 mph 36% 0.00 in 0.00 W/m2
23:40 76.9 °F 47.9 °F 29.88 in Calm   9.0 mph 36% 0.00 in 0.00 W/m2
23:45 76.9 °F 47.9 °F 29.88 in Calm   14.0 mph 36% 0.00 in 0.00 W/m2
23:47 76.8 °F 47.8 °F 29.88 in Calm   11.0 mph 36% 0.00 in 0.00 W/m2
23:52 76.7 °F 47.8 °F 29.88 in ESE 4.0 mph 14.0 mph 36% 0.00 in 0.00 W/m2
23:57 76.7 °F 47.8 °F 29.88 in ESE 7.0 mph 13.0 mph 36% 0.00 in 0.00 W/m2
Foresthill Weather
 WU-history PHP script courtesy of   Juneau County Weather.
powered by Cumulus v1.9.3 (1059)
Ambient Weather VWS v14.00
Top Contact Website Map Copyright © 2007 - 2018 Foresthillweather.com Never base important decisions on this or any weather information obtained from the Internet